TimeEST,TemperatureF,Dew PointF,Humidity,Sea Level PressureIn,VisibilityMPH,Wind Direction,Wind SpeedMPH,Gust SpeedMPH,PrecipitationIn,Events,Conditions,WindDirDegrees,DateUTC
12:55 AM,30.7,19.4,63,30.15,10.0,WNW,6.9,-,N/A,,Partly Cloudy,290,2012-12-12 05:55:00
1:55 AM,29.7,20.1,68,30.18,10.0,West,5.8,-,N/A,,Partly Cloudy,270,2012-12-12 06:55:00
2:55 AM,28.6,19.9,70,30.20,10.0,West,4.6,-,N/A,,Partly Cloudy,270,2012-12-12 07:55:00
3:55 AM,27.9,19.8,72,30.20,10.0,West,5.8,-,N/A,,Partly Cloudy,280,2012-12-12 08:55:00
4:55 AM,27.5,20.3,74,30.24,10.0,West,4.6,-,N/A,,Overcast,270,2012-12-12 09:55:00
5:55 AM,27.1,21.2,78,30.27,10.0,WSW,4.6,-,N/A,,Mostly Cloudy,250,2012-12-12 10:55:00
6:55 AM,25.7,18.7,75,30.30,10.0,NW,3.5,-,N/A,,Mostly Cloudy,310,2012-12-12 11:55:00
7:55 AM,26.8,19.2,73,30.33,10.0,Calm,Calm,-,N/A,,Mostly Cloudy,0,2012-12-12 12:55:00
8:55 AM,25.9,20.3,79,30.33,10.0,Calm,Calm,-,N/A,,Mostly Cloudy,0,2012-12-12 13:55:00
9:55 AM,32.2,20.8,63,30.35,10.0,WNW,4.6,-,N/A,,Scattered Clouds,300,2012-12-12 14:55:00
10:55 AM,33.6,20.5,59,30.35,10.0,Calm,Calm,-,N/A,,Scattered Clouds,0,2012-12-12 15:55:00
11:55 AM,33.8,19.9,57,30.32,10.0,Calm,Calm,-,N/A,,Mostly Cloudy,0,2012-12-12 16:55:00
12:55 PM,37.2,19.9,50,30.30,10.0,SSW,5.8,-,N/A,,Scattered Clouds,200,2012-12-12 17:55:00
1:55 PM,38.7,19.8,47,30.31,10.0,South,5.8,-,N/A,,Scattered Clouds,170,2012-12-12 18:55:00
2:55 PM,38.3,20.1,48,30.32,10.0,South,5.8,-,N/A,,Scattered Clouds,170,2012-12-12 19:55:00
3:55 PM,35.4,20.1,54,30.35,10.0,WSW,3.5,-,N/A,,Mostly Cloudy,250,2012-12-12 20:55:00
4:55 PM,33.1,20.7,60,30.36,10.0,SW,5.8,-,N/A,,Scattered Clouds,230,2012-12-12 21:55:00
5:55 PM,31.8,21.0,64,30.38,10.0,WSW,5.8,-,N/A,,Scattered Clouds,240,2012-12-12 22:55:00
6:55 PM,30.0,21.2,70,30.38,10.0,WSW,4.6,-,N/A,,Partly Cloudy,240,2012-12-12 23:55:00
7:55 PM,30.6,20.7,67,30.40,10.0,Calm,Calm,-,N/A,,Scattered Clouds,0,2012-12-13 00:55:00
8:55 PM,29.8,22.1,73,30.40,10.0,Calm,Calm,-,N/A,,Mostly Cloudy,0,2012-12-13 01:55:00
9:55 PM,28.2,22.6,80,30.42,10.0,Calm,Calm,-,N/A,,Mostly Cloudy,0,2012-12-13 02:55:00
10:55 PM,27.5,22.3,81,30.41,10.0,SW,3.5,-,N/A,,Scattered Clouds,230,2012-12-13 03:55:00
11:55 PM,23.7,20.3,87,30.42,10.0,WSW,2.3,-,N/A,,Scattered Clouds,250,2012-12-13 04:55:00